Hourly Weather Bolshie Ledinki

Today, 1 August, Sunday

Time Temperature Precipitation Wind Pressure Humidity
00:00 +15°C° 0 mm 2 mps 738 mmHg 83%
01:00 +15°C° 0 mm 2 mps 738 mmHg 84%
02:00 +15°C° 0 mm 2 mps 738 mmHg 86%
03:00 +15°C° 0 mm 2 mps 738 mmHg 84%
04:00 +16°C° 0 mm 2 mps 738 mmHg 83%
05:00 +16°C° 0 mm 2 mps 738 mmHg 81%
06:00 +17°C° 0 mm 3 mps 738 mmHg 76%
07:00 +19°C° 0 mm 3 mps 739 mmHg 72%
08:00 +20°C° 0 mm 4 mps 739 mmHg 67%
09:00 +19°C° 0.5 mm 3 mps 739 mmHg 77%
10:00 +18°C° 0.5 mm 3 mps 739 mmHg 86%
11:00 +17°C° 0.5 mm 3 mps 739 mmHg 96%
12:00 +19°C° 0 mm 3 mps 739 mmHg 88%
13:00 +21°C° 0 mm 4 mps 738 mmHg 79%
14:00 +22°C° 0 mm 5 mps 738 mmHg 71%
15:00 +23°C° 0.1 mm 4 mps 738 mmHg 72%
16:00 +23°C° 0.1 mm 4 mps 738 mmHg 73%
17:00 +24°C° 0.1 mm 3 mps 738 mmHg 74%
18:00 +22°C° 0.1 mm 3 mps 738 mmHg 81%
19:00 +20°C° 0.1 mm 2 mps 738 mmHg 87%
20:00 +19°C° 0.1 mm 2 mps 738 mmHg 94%
21:00 +18°C° 0 mm 2 mps 738 mmHg 94%
22:00 +18°C° 0 mm 2 mps 738 mmHg 94%
23:00 +17°C° 0 mm 2 mps 738 mmHg 95%

Tomorrow, 2 August, Monday

Time Temperature Precipitation Wind Pressure Humidity
00:00 +17°C° 0 mm 2 mps 738 mmHg 93%
01:00 +16°C° 0 mm 2 mps 738 mmHg 91%
02:00 +16°C° 0 mm 1 mps 738 mmHg 90%
03:00 +16°C° 0 mm 1 mps 738 mmHg 88%
04:00 +16°C° 0 mm 1 mps 738 mmHg 87%
05:00 +16°C° 0 mm 1 mps 738 mmHg 85%
06:00 +20°C° 0 mm 1 mps 738 mmHg 78%
07:00 +21°C° 0 mm 2 mps 737 mmHg 71%
08:00 +24°C° 0 mm 3 mps 737 mmHg 63%
09:00 +25°C° 0 mm 3 mps 737 mmHg 60%
10:00 +27°C° 0 mm 4 mps 736 mmHg 57%
11:00 +28°C° 0 mm 4 mps 736 mmHg 55%
12:00 +28°C° 0.3 mm 4 mps 735 mmHg 59%
13:00 +28°C° 0.3 mm 5 mps 735 mmHg 63%
14:00 +28°C° 0.3 mm 5 mps 734 mmHg 67%
15:00 +27°C° 0.9 mm 5 mps 733 mmHg 70%
16:00 +27°C° 0.9 mm 6 mps 733 mmHg 73%
17:00 +26°C° 0.9 mm 6 mps 732 mmHg 76%
18:00 +23°C° 1.9 mm 6 mps 732 mmHg 81%
19:00 +20°C° 1.9 mm 5 mps 733 mmHg 86%
20:00 +17°C° 1.9 mm 5 mps 733 mmHg 91%
21:00 +18°C° 0.7 mm 4 mps 733 mmHg 93%
22:00 +18°C° 0.7 mm 4 mps 733 mmHg 95%
23:00 +18°C° 0.7 mm 4 mps 733 mmHg 97%

Day after tomorrow, 3 August, Tuesday

Time Temperature Precipitation Wind Pressure Humidity
00:00 +17°C° 0 mm 3 mps 733 mmHg 96%
01:00 +17°C° 0 mm 3 mps 733 mmHg 96%
02:00 +16°C° 0 mm 3 mps 734 mmHg 95%
03:00 +16°C° 0 mm 3 mps 734 mmHg 95%
04:00 +16°C° 0 mm 2 mps 735 mmHg 94%
05:00 +16°C° 0 mm 2 mps 735 mmHg 94%
06:00 +16°C° 0 mm 2 mps 735 mmHg 92%
07:00 +17°C° 0 mm 3 mps 736 mmHg 89%
08:00 +17°C° 0 mm 3 mps 736 mmHg 87%
09:00 +18°C° 0.1 mm 3 mps 737 mmHg 81%
10:00 +19°C° 0.1 mm 3 mps 737 mmHg 74%
11:00 +20°C° 0.1 mm 3 mps 737 mmHg 68%
12:00 +20°C° 0.3 mm 4 mps 737 mmHg 70%
13:00 +20°C° 0.3 mm 4 mps 737 mmHg 72%
14:00 +20°C° 0.3 mm 4 mps 738 mmHg 74%
15:00 +21°C° 0.1 mm 4 mps 738 mmHg 68%
16:00 +21°C° 0.1 mm 4 mps 738 mmHg 62%
17:00 +21°C° 0.1 mm 3 mps 738 mmHg 56%
18:00 +20°C° 0 mm 3 mps 738 mmHg 64%
19:00 +18°C° 0 mm 3 mps 738 mmHg 72%
20:00 +16°C° 0 mm 2 mps 739 mmHg 80%
21:00 +15°C° 0 mm 2 mps 739 mmHg 85%
22:00 +14°C° 0 mm 2 mps 739 mmHg 91%
23:00 +13°C° 0 mm 2 mps 740 mmHg 96%

4 August, Wednesday

Time Temperature Precipitation Wind Pressure Humidity
00:00 +13°C° 0 mm 2 mps 740 mmHg 96%
01:00 +13°C° 0 mm 2 mps 740 mmHg 96%
02:00 +12°C° 0 mm 2 mps 741 mmHg 96%
03:00 +12°C° 0 mm 2 mps 741 mmHg 95%
04:00 +12°C° 0 mm 1 mps 742 mmHg 93%
05:00 +12°C° 0 mm 1 mps 742 mmHg 92%
06:00 +14°C° 0 mm 1 mps 742 mmHg 80%
07:00 +16°C° 0 mm 1 mps 743 mmHg 69%
08:00 +19°C° 0 mm 1 mps 743 mmHg 58%
09:00 +19°C° 0 mm 2 mps 743 mmHg 53%
10:00 +20°C° 0 mm 2 mps 743 mmHg 48%
11:00 +21°C° 0 mm 2 mps 743 mmHg 43%
12:00 +23°C° 0 mm 2 mps 743 mmHg 41%
13:00 +23°C° 0 mm 2 mps 743 mmHg 39%
14:00 +24°C° 0 mm 2 mps 743 mmHg 37%
15:00 +23°C° 0 mm 2 mps 743 mmHg 40%
16:00 +23°C° 0 mm 2 mps 744 mmHg 42%
17:00 +23°C° 0 mm 1 mps 744 mmHg 45%
18:00 +21°C° 0 mm 1 mps 744 mmHg 51%
19:00 +19°C° 0 mm 1 mps 744 mmHg 58%
20:00 +16°C° 0 mm 1 mps 744 mmHg 64%
21:00 +15°C° 0 mm 1 mps 744 mmHg 66%
22:00 +14°C° 0 mm 1 mps 744 mmHg 68%
23:00 +13°C° 0 mm 1 mps 745 mmHg 69%

5 August, Thursday

Time Temperature Precipitation Wind Pressure Humidity
00:00 +13°C° 0 mm 1 mps 745 mmHg 69%
01:00 +12°C° 0 mm 0 mps 745 mmHg 69%
02:00 +12°C° 0 mm 0 mps 745 mmHg 69%
03:00 +13°C° 0 mm 1 mps 745 mmHg 69%
04:00 +13°C° 0 mm 1 mps 745 mmHg 70%
05:00 +13°C° 0 mm 1 mps 745 mmHg 71%
06:00 +15°C° 0 mm 1 mps 745 mmHg 64%
07:00 +18°C° 0 mm 1 mps 745 mmHg 58%
08:00 +20°C° 0 mm 1 mps 745 mmHg 52%
09:00 +21°C° 0 mm 1 mps 745 mmHg 48%
10:00 +23°C° 0 mm 2 mps 745 mmHg 44%
11:00 +24°C° 0 mm 2 mps 745 mmHg 40%
12:00 +25°C° 0 mm 2 mps 745 mmHg 39%
13:00 +25°C° 0 mm 2 mps 744 mmHg 38%
14:00 +26°C° 0 mm 2 mps 744 mmHg 37%
15:00 +25°C° 0 mm 2 mps 744 mmHg 43%
16:00 +24°C° 0 mm 2 mps 744 mmHg 50%
17:00 +22°C° 0 mm 1 mps 744 mmHg 56%
18:00 +21°C° 0.1 mm 1 mps 744 mmHg 61%
19:00 +20°C° 0.1 mm 1 mps 744 mmHg 65%
20:00 +19°C° 0.1 mm 1 mps 744 mmHg 70%
21:00 +18°C° 0 mm 1 mps 744 mmHg 74%
22:00 +18°C° 0 mm 1 mps 744 mmHg 78%
23:00 +16°C° 0 mm 1 mps 744 mmHg 82%

6 August, Friday

Time Temperature Precipitation Wind Pressure Humidity
00:00 +15°C° 0 mm 1 mps 744 mmHg 84%
01:00 +15°C° 0 mm 1 mps 744 mmHg 86%
02:00 +14°C° 0 mm 1 mps 743 mmHg 88%
03:00 +14°C° 0 mm 1 mps 744 mmHg 88%
04:00 +14°C° 0 mm 1 mps 744 mmHg 87%
05:00 +14°C° 0 mm 2 mps 744 mmHg 87%
06:00 +16°C° 0 mm 2 mps 744 mmHg 80%
07:00 +18°C° 0 mm 2 mps 743 mmHg 73%
08:00 +20°C° 0 mm 3 mps 743 mmHg 65%
09:00 +20°C° 0.1 mm 3 mps 743 mmHg 69%
10:00 +20°C° 0.1 mm 3 mps 743 mmHg 72%
11:00 +20°C° 0.1 mm 3 mps 743 mmHg 75%
12:00 +19°C° 1.3 mm 3 mps 743 mmHg 82%
13:00 +18°C° 1.3 mm 3 mps 743 mmHg 89%
14:00 +17°C° 1.3 mm 4 mps 743 mmHg 96%
15:00 +17°C° 0.5 mm 4 mps 743 mmHg 96%
16:00 +16°C° 0.5 mm 5 mps 742 mmHg 95%
17:00 +16°C° 0.5 mm 5 mps 742 mmHg 95%
18:00 +16°C° 0.1 mm 5 mps 742 mmHg 95%
19:00 +16°C° 0.1 mm 5 mps 741 mmHg 94%
20:00 +16°C° 0.1 mm 5 mps 741 mmHg 94%
21:00 +17°C° 0.6 mm 4 mps 741 mmHg 94%
22:00 +17°C° 0.6 mm 3 mps 741 mmHg 94%
23:00 +17°C° 0.6 mm 2 mps 741 mmHg 95%
Show more

We Need Your Consent

Meteoprog and our Service Providers may store and access personal data such as cookies, device identifiers or other similar technologies on your device and process such data to personalise content and ads, as well as provide social media features and to analyse the traffic.

  • Store and/or access information on your device

    Cookies, device identifiers or other information can be stored or accessed on your device for the purposes indicated above.

  • Personalised ads and content, ad and content measurement, audience insights, and products development

    Ads and content can be personalised based on a profile. More data can be added to better personalise ads and content. Ad and content performance can be measured. Insights about the audience who saw the ads and content can be derived. Such data can be used to develop or improve user’s experience, systems and software.

By clicking ‘I Agree’ you will allow the use of indicated cookies, device identifiers, web beacons or other similar technologies. Your settings can be changed in the browser on your device.

For certain purposes, legitimate interests may be relied on, rather than consent. You can read more about this in our Privacy and Cookie Policy.